Regional Weather Roundup
Issued by NWS

Home | Current Version | Previous Version | Graphics & Text | Print | Product List | Glossary On
Versions: 1 2 3 4 5 6 7 8 9 10 11 12 13 14 15 16 17 18 19 20 21 22 23 24 25 26 27 28 29 30 31 32 33 34 35 36 37 38 39 40 41 42 43 44 45 46 47 48 49 50
000
ASUS43 KTOP 061408
RWRKS

WEATHER ROUNDUP FOR KANSAS
NATIONAL WEATHER SERVICE GOODLAND KS
900 AM CDT MON JUL 06 2015

NOTE:  "FAIR" INDICATES FEW OR NO CLOUDS BELOW 12,000 FEET WITH NO
SIGNIFICANT WEATHER AND/OR OBSTRUCTIONS TO VISIBILITY.

KSZ001>006-013>018-027>032-041>047-061500-
NORTHWEST KANSAS

CITY           SKY/WX    TMP DP  RH WIND       PRES   REMARKS
GOODLAND       CLOUDY    65  61  87 N23G31    30.05R
HAYS           MOSUNNY   82  64  54 W12       29.86R
HILL CITY      LGT RAIN  72  68  87 N16       29.92R
RUSSELL        MOSUNNY   80  67  64 S8        29.84S
$$

KSZ061>065-074>080-084>089-061500-
SOUTHWEST KANSAS

CITY           SKY/WX    TMP DP  RH WIND       PRES   REMARKS
DODGE CITY     MOSUNNY   78  65  63 SW16      29.89F
ELKHART          N/A     73  56  55 N15         N/A
GARDEN CITY    PTSUNNY   75  66  73 N22       29.93R
GREAT BEND     MOSUNNY   79  66  65 S13       29.87S
LIBERAL        SUNNY     77  64  65 NW13      29.95R
PRATT          MOSUNNY   79  63  57 S14       29.90S
$$

KSZ066>073-081>083-090>101-061500-
SOUTHEAST KANSAS

CITY           SKY/WX    TMP DP  RH WIND       PRES   REMARKS
CHANUTE        MOSUNNY   80  72  76 S21       29.94S
COFFEYVILLE    MOSUNNY   82  73  74 S20G26    29.94F
HUTCHINSON     PTSUNNY   80  68  66 S14       29.88R
MEDICINE LODGE   N/A     81  68  64 S13       29.87S
NEWTON         PTSUNNY   79  66  65 S15G22    29.92S
PARSONS        MOSUNNY   79  74  84 S12G20    29.96S
WICHITA INTL   PTSUNNY   81  70  69 S14       29.89R
WICHITA JABRA  PTSUNNY   82  70  66 S15       29.89S
WINFIELD       MOSUNNY   81  71  71 S14G26    29.92S
$$

KSZ007>012-019>026-033>040-048>060-102>105-061500-
NORTHEAST KANSAS

CITY           SKY/WX    TMP DP  RH WIND       PRES   REMARKS
CONCORDIA      MOSUNNY   80  69  69 S8        29.85F
EMPORIA        PTSUNNY   79  70  74 S16G25    29.90S
LAWRENCE       PTSUNNY   80  71  74 S13       29.91S
MANHATTAN      CLOUDY    80  71  74 S9        29.86S
MARYSVILLE     PTSUNNY   79  72  78 S7        29.87S
OLATHE IND     MOSUNNY   79  71  76 S16       29.93S
OLATHE EXE     MOSUNNY   76  71  85 S10       29.93R
SALINA         MOSUNNY   83  68  60 S15       29.85S
TOPEKA BILLARD CLOUDY    79  72  79 S7        29.90R
TOPEKA FORBES  CLOUDY    80  71  74 S12       29.90R
$$


USA.gov is the U.S. government's official web portal to all federal, state and local government web resources and services.